Location: Christian Reformed Church
(43.0975°N, 93.8113°W)
Time: 18:08:24
(UTC+00:00)

Cosmos 1758 Rocket - Pass Details

Date: 13 December 2025
Orbit: 595 x 629 km, 82.5° (Epoch: 15 January)

Event Time Altitude Azimuth Distance (km) Brightness Sun altitude
Rises 12:39:05 0° 213° (SSW) 2,892 6.9 -10.5°
Reaches altitude 10° 12:41:33 10° 224° (SW) 1,986 5.9 -10.1°
Maximum altitude 12:45:24 29° 285° (WNW) 1,129 4.3 -9.5°
Drops below altitude 10° 12:49:16 10° 347° (NNW) 1,982 5.8 -8.8°
Sets 12:51:43 0° 358° (N) 2,885 6.7 -8.4°
